Oakes, ND

6:36 PM CST on November 11, 2019 (GMT -0600)
Oakes

Weather History for K2D5 - September, 2019

Change the Weather History Date:

Thursday, September 5, 2019

  Actual Average (WUND) Record (WUND)
Temperature  
Mean Temperature 68 °F -  
Max Temperature 78 °F - - (-1)
Min Temperature 59 °F - - (-1)
Cooling Degree Days 4    
Growing Degree Days 18 (Base 50)    
Moisture  
Dew Point 63 °F    
Average Humidity 86    
Maximum Humidity 100    
Minimum Humidity 61    
Precipitation  
Precipitation 0.00 in - - ()
Sea Level Pressure  
Sea Level Pressure 29.95 in    
Wind  
Wind Speed 14 mph (West)    
Max Wind Speed 21 mph    
Max Gust Speed 26 mph    
Visibility 10 miles    
Events      
Averages and records for this station are not official NWS values.
T = Trace of Precipitation, MM = Missing Value Source: NWS Daily Summary

Daily Weather History Graph

Daily Weather History Graph

Search for Another Location

Airport or City:

Astronomy

Sep. 05, 2019 Rise Set
Actual Time 6:57 AM CDT 8:03 PM CDT
Civil Twilight 6:26 AM CDT 8:34 PM CDT
Nautical Twilight 5:49 AM CDT 9:10 PM CDT
Astronomical Twilight 5:10 AM CDT 9:49 PM CDT
Moon 2:29 PM CDT (9/5) 11:56 PM CDT (9/5)
Length of Visible Light 14h 07m
Length of Day
13h 05m
Waxing Crescent, 45% of the Moon is Illuminated
Sep 5
Waxing Crescent
Sep 5
First Quarter
Sep 13
Full
Sep 21
Last Quarter
Sep 28
New

Hourly Weather History & Observations

Time (CDT) Temp. Dew Point Humidity Pressure Visibility Wind Dir Wind Speed Gust Speed Precip Events Conditions
12:15 AM 64.4 °F 62.6 °F 94% 29.93 in 10.0 mi South 13.8 mph - N/A   Clear
12:35 AM 64.4 °F 62.6 °F 94% 29.92 in 10.0 mi South 15.0 mph - N/A   Clear
12:55 AM 64.4 °F 62.6 °F 94% 29.91 in 10.0 mi South 13.8 mph 19.6 mph N/A   Clear
1:15 AM 64.4 °F 62.6 °F 94% 29.92 in 10.0 mi South 12.7 mph 18.4 mph N/A   Clear
1:35 AM 64.4 °F 62.6 °F 94% 29.91 in 10.0 mi South 13.8 mph - N/A   Clear
1:55 AM 64.4 °F 62.6 °F 94% 29.89 in 10.0 mi South 16.1 mph 23.0 mph N/A   Clear
2:15 AM 66.2 °F 62.6 °F 88% 29.88 in 10.0 mi South 20.7 mph 26.5 mph N/A   Clear
2:35 AM 66.2 °F 62.6 °F 88% 29.88 in 10.0 mi South 18.4 mph 25.3 mph N/A   Clear
2:55 AM 66.2 °F 62.6 °F 88% 29.87 in 10.0 mi South 17.3 mph 24.2 mph N/A   Clear
3:15 AM 66.2 °F 62.6 °F 88% 29.86 in 10.0 mi South 16.1 mph 23.0 mph N/A   Clear
3:35 AM 66.2 °F 62.6 °F 88% 29.86 in 10.0 mi South 19.6 mph - N/A   Clear
3:55 AM 66.2 °F 62.6 °F 88% 29.84 in 10.0 mi South 18.4 mph - N/A   Clear
4:15 AM 66.2 °F 62.6 °F 88% 29.84 in 10.0 mi South 19.6 mph - N/A   Clear
4:35 AM 66.2 °F 62.6 °F 88% 29.84 in 10.0 mi South 17.3 mph 25.3 mph N/A   Clear
4:55 AM 64.4 °F 64.4 °F 100% 29.85 in 10.0 mi SSW 16.1 mph 23.0 mph N/A   Clear
5:15 AM 64.4 °F 64.4 °F 100% 29.85 in 10.0 mi SSW 13.8 mph 19.6 mph N/A   Clear
5:35 AM 64.4 °F 64.4 °F 100% 29.84 in 10.0 mi SSW 13.8 mph - N/A   Clear
5:55 AM 62.6 °F 62.6 °F 100% 29.85 in 10.0 mi SSW 13.8 mph - N/A   Clear
6:15 AM 62.6 °F 62.6 °F 100% 29.86 in 10.0 mi SW 10.4 mph 17.3 mph N/A   Clear
6:35 AM 62.6 °F 62.6 °F 100% 29.86 in 9.0 mi SW 9.2 mph 17.3 mph N/A   Clear
6:55 AM 62.6 °F 62.6 °F 100% 29.87 in 10.0 mi SW 9.2 mph - N/A   Clear
7:15 AM 62.6 °F 62.6 °F 100% 29.87 in 10.0 mi SSW 16.1 mph - N/A   Clear
7:35 AM 62.6 °F 62.6 °F 100% 29.88 in 10.0 mi SSW 10.4 mph - N/A   Clear
7:55 AM 62.6 °F 62.6 °F 100% 29.88 in 10.0 mi SSW 10.4 mph - N/A   Clear
8:15 AM 64.4 °F 64.4 °F 100% 29.89 in 9.0 mi SW 10.4 mph - N/A   Clear
8:35 AM 64.4 °F 64.4 °F 100% 29.88 in 10.0 mi SW 10.4 mph - N/A   Clear
8:55 AM 66.2 °F 66.2 °F 100% 29.89 in 10.0 mi SSW 11.5 mph - N/A   Clear
9:15 AM 66.2 °F 66.2 °F 100% 29.89 in 10.0 mi SW 10.4 mph - N/A   Clear
9:35 AM 68.0 °F 66.2 °F 94% 29.90 in 9.0 mi SW 9.2 mph - N/A   Clear
9:55 AM 69.8 °F 64.4 °F 83% 29.90 in 10.0 mi WSW 9.2 mph - N/A   Clear
10:15 AM 71.6 °F 64.4 °F 78% 29.90 in 10.0 mi West 9.2 mph - N/A   Clear
10:35 AM 73.4 °F 64.4 °F 73% 29.90 in 10.0 mi West 10.4 mph - N/A   Clear
10:55 AM 75.2 °F 64.4 °F 69% 29.90 in 10.0 mi West 12.7 mph - N/A   Clear
11:15 AM 77.0 °F 64.4 °F 65% 29.90 in 10.0 mi WNW 13.8 mph - N/A   Clear
11:35 AM 77.0 °F 62.6 °F 61% 29.91 in 10.0 mi NW 13.8 mph 19.6 mph N/A   Clear
11:55 AM 77.0 °F 62.6 °F 61% 29.92 in 10.0 mi NW 13.8 mph - N/A   Clear
12:15 PM 77.0 °F 62.6 °F 61% 29.92 in 10.0 mi WNW 17.3 mph 23.0 mph N/A   Clear
12:35 PM 78.8 °F 64.4 °F 61% 29.93 in 10.0 mi NW 16.1 mph - N/A   Clear
12:55 PM 77.0 °F 64.4 °F 65% 29.93 in 10.0 mi NW 17.3 mph - N/A   Clear
1:15 PM 77.0 °F 66.2 °F 69% 29.94 in 10.0 mi NW 13.8 mph 20.7 mph N/A   Clear
1:35 PM 77.0 °F 66.2 °F 69% 29.95 in 10.0 mi NNW 16.1 mph 21.9 mph N/A   Clear
1:55 PM 77.0 °F 66.2 °F 69% 29.95 in 10.0 mi NNW 16.1 mph - N/A   Clear
2:15 PM 77.0 °F 66.2 °F 69% 29.95 in 10.0 mi NNW 16.1 mph - N/A   Clear
2:35 PM 77.0 °F 66.2 °F 69% 29.96 in 10.0 mi NNW 15.0 mph 20.7 mph N/A   Clear
2:55 PM 77.0 °F 66.2 °F 69% 29.97 in 10.0 mi NW 16.1 mph 25.3 mph N/A   Clear
3:15 PM 77.0 °F 66.2 °F 69% 29.98 in 10.0 mi NNW 18.4 mph 26.5 mph N/A   Clear
3:35 PM 75.2 °F 64.4 °F 69% 29.99 in 10.0 mi NNW 17.3 mph - N/A   Clear
3:55 PM 73.4 °F 64.4 °F 73% 30.00 in 10.0 mi NNW 16.1 mph - N/A   Partly Cloudy
4:15 PM 73.4 °F 64.4 °F 73% 30.00 in 10.0 mi NNW 13.8 mph 20.7 mph N/A   Partly Cloudy
4:35 PM 73.4 °F 64.4 °F 73% 30.01 in 9.0 mi NNW 17.3 mph - N/A   Scattered Clouds
4:55 PM 71.6 °F 64.4 °F 78% 30.01 in 10.0 mi North 13.8 mph - N/A   Scattered Clouds
5:15 PM 71.6 °F 62.6 °F 73% 30.02 in 10.0 mi NW 15.0 mph - N/A   Partly Cloudy
5:35 PM 71.6 °F 62.6 °F 73% 30.03 in 10.0 mi NNW 12.7 mph 19.6 mph N/A   Partly Cloudy
5:55 PM 71.6 °F 62.6 °F 73% 30.03 in 10.0 mi NNW 13.8 mph - N/A   Mostly Cloudy
6:15 PM 71.6 °F 62.6 °F 73% 30.04 in 10.0 mi NNW 15.0 mph 23.0 mph N/A   Scattered Clouds
6:35 PM 71.6 °F 62.6 °F 73% 30.04 in 10.0 mi NNW 15.0 mph - N/A   Scattered Clouds
6:55 PM 69.8 °F 62.6 °F 78% 30.05 in 10.0 mi NW 11.5 mph 18.4 mph N/A   Scattered Clouds
7:15 PM 69.8 °F 62.6 °F 78% 30.05 in 10.0 mi NNW 10.4 mph - N/A   Partly Cloudy
7:35 PM 68.0 °F 64.4 °F 88% 30.06 in 10.0 mi NNW 6.9 mph - N/A   Clear
7:55 PM 66.2 °F 64.4 °F 94% 30.06 in 10.0 mi NNW 5.8 mph - N/A   Clear
8:15 PM 64.4 °F 64.4 °F 100% 30.06 in 10.0 mi NNW 5.8 mph - N/A   Clear
8:35 PM 62.6 °F 62.6 °F 100% 30.07 in 10.0 mi NNW 6.9 mph - N/A   Clear
8:55 PM 62.6 °F 62.6 °F 100% 30.07 in 10.0 mi NNW 5.8 mph - N/A   Clear
9:15 PM 62.6 °F 62.6 °F 100% 30.08 in 10.0 mi NW 6.9 mph - N/A   Clear
9:35 PM 62.6 °F 62.6 °F 100% 30.09 in 10.0 mi NNW 4.6 mph - N/A   Clear
9:55 PM 62.6 °F 62.6 °F 100% 30.10 in 10.0 mi NNW 5.8 mph - N/A   Clear
10:15 PM 60.8 °F 60.8 °F 100% 30.10 in 10.0 mi NNW 5.8 mph - N/A   Clear
10:35 PM 60.8 °F 60.8 °F 100% 30.10 in 10.0 mi NNW 5.8 mph - N/A   Partly Cloudy
10:55 PM 60.8 °F 60.8 °F 100% 30.10 in 10.0 mi NW 4.6 mph - N/A   Mostly Cloudy
11:15 PM 60.8 °F 60.8 °F 100% 30.10 in 10.0 mi NW 4.6 mph - N/A   Overcast
11:35 PM 59.0 °F 59.0 °F 100% 30.11 in 10.0 mi NE 6.9 mph - N/A   Overcast
11:55 PM 59.0 °F 59.0 °F 100% 30.11 in 10.0 mi NE 5.8 mph - N/A   Scattered Clouds